fc-perspolis.com alexa rank chart, fc-perspolis.com alexa rank daily changes

fc-perspolis.com alexa rank chart, fc-perspolis.com alexa rank daily changes

fc-perspolis.com
Actual rank:
55 449

RANK HISTORY

Date Rank Diff
2017/05/24 55 449 +112
2017/05/23 55 337 -244
2017/05/22 55 581 +727
2017/05/21 54 854 +1 422
2017/05/20 53 432 +1 048
2017/05/19 52 384 +484
2017/05/18 51 900 +1 660
2017/05/17 50 240 +1 294
2017/05/16 48 946 +26
2017/05/15 48 920 -343
2017/05/14 49 263 +166
2017/05/13 49 097 +44
2017/05/12 49 053 +360
2017/05/11 48 693 +629
2017/05/10 48 064 -271
2017/05/09 48 335 +30
2017/05/08 48 305 -837
2017/05/07 49 142 +222
2017/05/06 48 920 +761
2017/05/05 48 159 +368
2017/05/04 47 791 -155
2017/05/03 47 946 +501
2017/05/02 47 445 -583
2017/05/01 48 028 -340
2017/04/30 48 368 -698
2017/04/29 49 066 +344
2017/04/28 48 722 +116
2017/04/27 48 606 +558
2017/04/26 48 048 +49
2017/04/25 47 999 -661
2017/04/24 48 660 -769
2017/04/23 49 429 +18
2017/04/22 49 411 -575
2017/04/21 49 986 -1 206
2017/04/20 51 192 -819
2017/04/19 52 011 -532
2017/04/18 52 543 -1 683
2017/04/17 54 226 -1 449
2017/04/16 55 675 +1 312
2017/04/15 54 363 +806
2017/04/14 53 557 +1 651
2017/04/13 51 906 +2 173
2017/04/12 49 733 +611
2017/04/11 49 122 -140
2017/04/10 49 262 +64
2017/04/09 49 198 -638
2017/04/08 49 836 -354
2017/04/07 50 190 +628
2017/04/06 49 562 +183
2017/04/05 49 379 +97
2017/04/04 49 282 +241
2017/04/03 49 041 +327
2017/04/02 48 714 +601
2017/04/01 48 113 +646
2017/03/31 47 467 -28
2017/03/30 47 495 +805
2017/03/29 46 690 +864
2017/03/28 45 826 +880
2017/03/27 44 946 -253
2017/03/26 45 199 -390
2017/03/25 45 589 +415
2017/03/24 45 174

WIDGET FOR YOUR SITE

DOMAINS WITH THE NEAREST RANK

Domain Rank
leonisa.com 55 444
botland.com.pl 55 445
addongenie.com 55 446
persianpet.org 55 447
bpm.uol.com.br 55 448
fc-perspolis.com 55 449
i-fotki.info 55 450
img-space.net 55 451
rticcoolers.com 55 452
travelgirls.com 55 453
ruijie.com.cn 55 454

DOMAINS WITH THE NEAREST RANK BY TLD .com

Domain Rank
slovar-vocab.com 55 430
textbookrush.com 55 437
cccpmo.com 55 441
leonisa.com 55 444
addongenie.com 55 446
fc-perspolis.com 55 449
rticcoolers.com 55 452
travelgirls.com 55 453
7xdown.com 55 458
charlesproxy.com 55 459
psychforums.com 55 460